Location: North Evanston
(42.0634°N, 87.6976°W)
Time: 12:07:13
(UTC+00:00)

Injun/Solrad 3 - Pass Details

Date: 18 May 2026
Orbit: 867 x 989 km, 66.8° (Epoch: 11 June)

Event Time Altitude Azimuth Distance (km) Brightness Sun altitude
Rises 04:18:04 0° 335° (NNW) 3,677 12.4 -25.0°
Reaches altitude 10° 04:21:01 10° 347° (NNW) 2,739 11.4 -25.2°
Maximum altitude 04:26:30 29° 45° (NE) 1,742 9.5 -25.6°
Enters shadow 04:29:45 19° 88° (E) 2,149 9.6 -25.8°
Drops below altitude 10° 04:31:59 10° 104° (ESE) 2,745 - -26.0°
Sets 04:34:57 0° 115° (ESE) 3,686 - -26.2°
